Regional Weather Roundup
Issued by NWS Grand Forks, ND

Home | Current Version | Previous Version | Graphics & Text | Print | Product List | Glossary On
Versions: 1 2 3 4 5 6 7 8 9 10 11 12 13 14 15 16 17 18 19 20 21 22 23 24 25 26 27 28 29 30 31 32 33 34 35 36 37 38 39 40 41 42 43 44 45 46 47 48 49 50
000
ASUS43 KFGF 302310
RWRFGF
PRAIRIE TO PINES  WEATHER ROUNDUP
NATIONAL WEATHER SERVICE EASTERN NORTH DAKOTA/GRAND FORKS ND
500 PM CST FRI JAN 30 2015

 **SATELLITE DATA USED TO AUGMENT SKY COVER AT AUTOMATED STATIONS**
 *****  WEATHER ACROSS EASTERN NORTH DAKOTA  *****

CITY           SKY/WX    TMP DP  RH WIND       PRES   REMARKS
GRAND FORKS    CLEAR     33  23  66 NW6       30.10S
GRAND FRKS AFB CLEAR     33  23  67 W8        30.11S
GRAND FRKS NWS   N/A     32 N/A N/A NW6         N/A
DEVILS LAKE    CLEAR     28  21  74 NW15      30.11R WCI  17
FARGO          CLEAR     32  24  72 S9        30.13S WCI  24
WAHPETON ARPT  PTCLDY    32  27  80 SE7       30.14S
$$

 ***** WEATHER ACROSS CENTRAL AND WESTERN NORTH DAKOTA  *****

CITY           SKY/WX    TMP DP  RH WIND       PRES   REMARKS
BISMARCK       CLEAR     43  27  53 N10       30.14R
MINOT          CLOUDY    29  24  82 NW15      30.15S WCI  18
JAMESTOWN      CLEAR     35  26  69 W10       30.10S
MINOT AFB      CLOUDY    27  27  99 NW18      30.16R WCI  14
GARRISON         N/A     35  28  75 NW14      30.14R
WILLISTON      CLEAR     40  27  59 NW6       30.18S
DICKINSON      CLEAR     43  25  49 NW10      30.13S
HETTINGER      CLEAR     46  24  42 N7        30.14F
$$

 *****  OTHER AIRPORT OBSERVATIONS IN OUR AREA  *****

CITY           SKY/WX    TMP DP  RH WIND       PRES   REMARKS
WALHALLA         N/A     27  25  93 NW13      30.13R WCI  16
GRAFTON AIRPOR NOT AVBL
VALLEY CITY AR FAIR      34  28  80 W9        30.11R
CANDO          CLOUDY    25  23  93 N22G28    30.13R WCI  10
CAVALIER APRT  CLOUDY    27  23  86 CALM      30.12R
GWINNER        CLEAR     36  30  80 W13       30.13S
ROLLA          CLOUDY    23  23 100 NW22G28   30.12R WCI   8
 ***** THE ABOVE OBSERVATIONS ARE NON NWS ARE NOT QUALITY
       CONTROLLED AND MAY MIS-REPORT RAIN FOR SNOW...
$$

  *****  WEATHER ACROSS NORTHERN MINNESOTA  *****

CITY           SKY/WX    TMP DP  RH WIND       PRES   REMARKS
FLAG ISLAND    CLOUDY    12   9  85 SE9       30.12F WCI   0
WARROAD        CLOUDY    19  14  79 SW7       30.13S WCI  10
ROSEAU         CLOUDY    21  16  79 S6        30.12F WCI  14
HALLOCK        CLOUDY    25  19  80 S7        30.12S WCI  17
THF RVR FALLS  MOCLDY    25  19  80 S8        30.11F WCI  16
BAUDETTE       CLOUDY    16   8  71 S6        30.12S WCI   7
WASKISH        CLOUDY    18  10  73 S9        30.15S WCI   6
CROOKSTON      CLEAR     28  21  74 S10       30.12F WCI  19
STEPHEN NDAWN    N/A     27  21  80 S8          N/A  WCI  18
GREENBUSH NDAW   N/A     23  19  86 SW8         N/A  WCI  14
$$
  *****  WEATHER ACROSS CENTRAL AND WEST MINNESOTA  *****

CITY           SKY/WX    TMP DP  RH WIND       PRES   REMARKS
FOSSTON        CLOUDY    21  18  86 S14       30.12F WCI   8
BEMIDJI        CLOUDY    20  13  74 S5        30.13F WCI  14
PARK RAPIDS    CLOUDY    24  15  68 S8        30.14S WCI  15
ELBOW LAKE     FAIR      27  23  85 S12       30.14F WCI  17
WADENA         MOCLDY    21  16  79 S7        30.16R WCI  13
DETROIT LAKES  CLOUDY    27  21  80 S10       30.15F WCI  17
MOORHEAD       CLEAR     30  28  93 S13       30.14F WCI  20
FERGUS FALLS   CLEAR     27  19  74 S9        30.18R WCI  17
MORRIS MN      CLEAR     30  27  86 S13       30.14F WCI  20
STAPLES        CLOUDY    23  14  68 S12       30.16F WCI  12
$$
  *****  WEATHER ELSEWHERE ACROSS MINNESOTA  *****

CITY           SKY/WX    TMP DP  RH WIND       PRES   REMARKS
DULUTH         MOCLDY    15   3  59 S9        30.20F WCI   3
INTRNTL FALLS  CLOUDY    11   6  81 SE10      30.13F WCI  -3
ELY            LGT SNOW  12   9  85 S5        30.17F WCI   4
CLOQUET        CLOUDY    16   3  57 S3        30.21F
WHEATON        CLEAR     34  28  80 S8        30.15S
BRAINERD       CLOUDY    23  12  62 S10G18    30.17F WCI  12
HIBBING        CLOUDY    17   3  54 S9        30.16F WCI   6
ALEXANDRIA     CLOUDY    24  19  81 S14       30.16F WCI  12
SAINT CLOUD    MOCLDY    25  16  68 S13       30.21F WCI  14
MINNEAPOLIS    PTCLDY    27  15  61 S8        30.28F WCI  19
$$

  *****  WEATHER ACROSS SOUTH DAKOTA  *****

CITY           SKY/WX    TMP DP  RH WIND       PRES   REMARKS
SIOUX FALLS    MOCLDY    37  28  70 S15       30.20F
BROOKINGS      NOT AVBL
WATERTOWN      CLEAR     36  28  73 SW14      30.14R
HURON          CLEAR     43  29  57 S6        30.14F
SISSETON         N/A     37  29  72 W10       30.12
ABERDEEN       CLEAR     40  31  70 S5        30.14S
MITCHELL       CLEAR     46  29  51 S8        30.16F
PIERRE         PTCLDY    44  24  45 W3        30.11F
MOBRIDGE       CLEAR     46  29  51 NW7       30.10S
RAPID CITY     PTCLDY    48  26  42 N17       30.12S
$$

  *****  SOME WEATHER IN NEARBY STATES *****

CITY           SKY/WX    TMP DP  RH WIND       PRES   REMARKS
GLASGOW MT     PTCLDY    39  30  70 N6        30.18S
GREAT FALLS MT SUNNY     49  16  26 SW7       30.10F
CHEYENNE WY    CLOUDY    41  24  51 NE10      30.09S
SCOTTSBLUFF NE CLOUDY    44  30  57 CALM      30.10S
OMAHA NE       MOCLDY    35  24  64 SE12      30.34F
DES MOINES IA  MOCLDY    35  13  40 S8        30.39F
DAVENPORT IA   CLEAR     27  16  63 SW5       30.43F WCI  22
CHICAGO IL     CLEAR     27   9  46 W7        30.42F WCI  19
EAU CLAIRE WI  CLEAR     19   5  54 S7        30.33F WCI  10
LA CROSSE WI   PTCLDY    25   8  48 S8        30.37F WCI  16
$$

  *****  SOME NATIONAL WEATHER *****

CITY           SKY/WX    TMP DP  RH WIND       PRES   REMARKS
LA GUARDIA NY  PTCLDY    32  17  54 NW28G33   29.91R WCI  18
RALEIGH NC     PTCLDY    40  12  32 NW8G28    30.18R
ATLANTA GA     PTCLDY    46  19  34 NW17G23   30.29R
NEW ORLEANS LA MOCLDY    56  33  42 N5        30.32S
OKLAHOMA CITY  CLOUDY    47  23  38 NE7       30.37S
ALBUQUERQUE NM CLOUDY    36  33  89 NW5       30.10F
SALT LAKE CITY CLOUDY    42  36  79 W5        30.01F
LOS ANGELES CA CLOUDY    64  54  69 W8        29.85R
BOISE ID       SUNNY     45  33  63 W10       30.18F
SEATTLE WA     PTSUNNY   44  40  85 NW5       30.27R
$$

*** WEATHER ACROSS MANITOBA...SASKATCHEWAN AND ONTARIO ***
                ***ONTARIO***

CITY           SKY/WX    TMP DP  RH WIND       PRES   REMARKS
GERALDTON      PTCLDY    -2  -9  71 SW3       30.22F
THUNDER BAY    MOCLDY    10   3  72 E3        30.29F
SIOUX LOOKOUT  FLURRIES   5   0  78 S8        30.12F WCI  -8
TORONTO        PTCLDY    10  -2  56 NW17G23   30.33R WCI  -7
BIG TROUT LK   FLURRIES   0  -6  78 SW7       30.07F WCI -13
PICKLE LAKE    MOCLDY     1  -6  71 S6        30.10F WCI -10
DRYDEN         LGT SNOW   7   3  85 S8        30.11F WCI  -6
KENORA         LGT SNOW   9   5  85 S7        30.12F WCI  -3
$$
                *** MANITOBA***

CITY           SKY/WX    TMP DP  RH WIND       PRES   REMARKS
BRANDON        MOCLDY    21  16  79 N15       30.17R WCI   8
DAUPHIN        CLOUDY    16  12  86 NE7       30.24R WCI   6
ISLAND LAKE    PTCLDY     0  -6  78 NW9       30.12R WCI -16
PILOT MOUND      N/A     19  18  93 NW14        N/A  WCI   6
THE PAS        PTCLDY     3  -4  72 NW14      30.30R WCI -15
THOMPSON       PTCLDY    -9 -18  64 NW8       30.24R WCI -26
WINNIPEG       CLOUDY    18  14  86 W3        30.16R
LYNN LAKE      CLEAR    -17 -26  63 NW15G24   30.32R WCI -41
CHURCHILL      CRYSTALS -24 -31  69 NW28G37   30.20R VSB 3/4 WCI -57
GILLAM         CLEAR    -15 -24  64 NW10      30.17R WCI -35
$$
                ***SASKATCHEWAN***

CITY           SKY/WX    TMP DP  RH WIND       PRES   REMARKS
ESTEVAN        CLOUDY    23  19  86 NW16      30.20R WCI  10
KINDERSLEY     LGT SNOW  23  21  93 NE10      30.21F FOG     WCI  12
LLOYDMINSTER   CLOUDY    18  14  86 NE9       30.28R WCI   6
PRINCE ALBERT  MOCLDY    12   3  67 N8        30.34R WCI   1
REGINA         CLOUDY    21  18  86 NW13      30.23S WCI   9
YORKTON        CLOUDY    18  10  73 NW12      30.22R WCI   5
N. BATTLEFORD  CLOUDY    19  16  86 NE9       30.31S WCI   9
LA RONGE       PTCLDY     3  -6  66 NW10      30.39R WCI -12
SASKATOON      FLURRIES  18  14  86 NE10      30.31R WCI   6
SWIFT CURRENT  FOG       28  28 100 NE7       30.17F VSB 1/2 WCI  21
$$
NOTE: THESE ARE AUTOMATED STATIONS WITH LIMITED QUALITY CONTROL
      "FAIR" INDICATES FEW OR NO CLOUDS BELOW 12,000 FEET WITH NO
      SIGNIFICANT WEATHER AND/OR OBSTRUCTIONS TO VISIBILITY.
      SKY/WX - SKY CONDITION AND SIGNIFICANT WEATHER.
      TMP - AIR TEMPERATURE.    DP   - DEWPOINT TEMPERATURE.
      RH  - RELATIVE HUMIDITY.  PRES - PRESSURE.
      HX  - HEAT INDEX.         WCI  - WIND CHILL INDEX.
$


USA.gov is the U.S. government's official web portal to all federal, state and local government web resources and services.